x

8656483 - Beaufort, Nc (bftn7) Weather Station

4:54pm - Tue 16th Oct 2018 All times are EDT. -4 hours from GMT.

  • Wind
    11mph, 14mph gusts
  • Sea Temp 77°f
  • Air Temp 76°f
  • Sea Pressure 1018.7mb
  • 8656483 - Beaufort, Nc
  • 8656483 - Beaufort, Nc

More Historic Weather Station data

Upgrade to MSW Pro to gain access to the past 30 days of data for over 8000 Wavebouys and Weather Stations around the globe.

Join

Comparision Forecast

View Surf forecast
   
Tue 10/16 4:54pm 11 14 mph 1018.7mb 77f 76f
4:48pm 9 14 mph 1018.7mb 77f 76f
4:42pm 9 15 mph 1018.7mb 77f 76f
4:36pm 11 15 mph 1018.7mb 77f 76f
4:30pm 9 15 mph 1018.7mb 77f 76f
4:24pm 11 14 mph 1018.7mb 77f 76f
4:18pm 9 15 mph 1018.7mb 77f 77f
4:12pm 11 15 mph 1018.7mb 77f 77f
4:06pm 11 17 mph 1018.5mb 76f 79f
4:00pm 6 7 mph 1018.5mb 76f 82f
3:54pm 5 6 mph 1018.5mb 76f 82f
3:48pm 3 6 mph 1018.5mb 76f 82f
3:42pm 3 7 mph 1018.5mb 76f 82f
3:36pm 3 6 mph 1018.4mb 76f 82f
3:30pm 2 5 mph 1018.4mb 76f 82f
3:24pm 3 6 mph 1018.4mb 76f 82f
3:18pm 5 8 mph 1018.4mb 76f 82f
3:12pm 7 8 mph 1018.3mb 76f 82f
3:06pm 7 8 mph 1018.4mb 76f 82f
3:00pm 6 8 mph 1018.5mb 76f 82f
2:54pm 5 7 mph 1018.6mb 76f 83f
2:48pm 3 9 mph 1018.6mb 76f 83f
2:42pm 3 6 mph 1018.6mb 76f 83f
2:36pm 3 6 mph 1018.6mb 76f 84f
2:30pm 1 6 mph 1018.7mb 76f 83f
2:24pm 3 11 mph 1018.8mb 76f 83f
2:18pm 3 5 mph 1018.9mb 76f 83f
2:12pm 2 9 mph 1018.9mb 76f 83f
2:06pm 6 8 mph 1019mb 76f 83f
2:00pm 5 8 mph 1019.1mb 76f 84f
1:54pm 6 9 mph 1019.1mb 76f 83f
1:48pm 7 9 mph 1019.2mb 76f 82f
1:42pm 6 8 mph 1019.2mb 76f 83f
1:36pm 6 10 mph 1019.3mb 76f 82f
1:30pm 6 10 mph 1019.5mb 76f 82f
1:24pm 8 11 mph 1019.6mb 76f 83f
1:18pm 5 8 mph 1019.6mb 76f 84f
1:12pm 3 7 mph 1019.6mb 76f 84f
1:06pm 5 9 mph 1019.7mb 76f 83f
1:00pm 3 9 mph 1019.8mb 76f 83f
12:18pm 9 11 mph 1020.4mb 76f 82f
12:12pm 7 8 mph 1020.5mb 76f 83f
12:06pm 6 9 mph 1020.6mb 75f 82f
12:00pm 7 11 mph 1020.7mb 75f 81f
11:54am 5 10 mph 1020.7mb 75f 82f
11:48am 7 14 mph 1020.8mb 75f 81f
11:42am 7 14 mph 1020.9mb 75f 81f
11:36am 8 10 mph 1020.9mb 75f 81f
11:30am 8 11 mph 1021mb 75f 81f
11:24am 5 10 mph 1021mb 75f 81f
11:18am 6 8 mph 1021mb 75f 81f
11:12am 6 10 mph 1021.1mb 75f 81f
11:06am 5 9 mph 1021mb 75f 81f
11:00am 6 13 mph 1021mb 75f 81f
10:54am 8 11 mph 1021.1mb 75f 81f
10:48am 8 9 mph 1021.2mb 75f 81f
10:42am 5 10 mph 1021.2mb 75f 80f
10:36am 7 10 mph 1021.3mb 76f 80f
10:30am 8 11 mph 1021.3mb 76f 80f
10:24am 7 14 mph 1021.4mb 76f 80f
10:18am 11 15 mph 1021.5mb 76f 80f
10:12am 7 8 mph 1021.5mb 76f 80f
10:06am 6 9 mph 1021.3mb 76f 80f
10:00am 7 9 mph 1021.3mb 76f 79f
9:54am 3 10 mph 1021.4mb 76f 79f
9:48am 3 7 mph 1021.4mb 76f 79f
9:42am 5 10 mph 1021.4mb 76f 79f
9:36am 7 13 mph 1021.3mb 76f 78f
9:30am 7 11 mph 1021.3mb 76f 79f
9:24am 6 9 mph 1021.3mb 76f 78f
9:18am 3 8 mph 1021.3mb 76f 78f
9:12am 3 6 mph 1021.2mb 76f 78f
9:06am 2 6 mph 1021.1mb 76f 78f
9:00am 3 6 mph 1021.1mb 76f 77f
8:48am 2 3 mph 1021.1mb 76f 77f
8:42am 2 6 mph 1021mb 76f 77f
8:36am 3 6 mph 1021mb 76f 77f
8:30am 5 7 mph 1020.9mb 76f 77f
8:24am 3 5 mph 1020.9mb 76f 77f
8:18am 3 6 mph 1020.9mb 76f 78f
8:12am 2 7 mph 1020.8mb 76f 78f
8:06am 3 6 mph 1020.8mb 76f 78f
8:00am 2 8 mph 1020.6mb 76f 78f
7:54am 2 9 mph 1020.6mb 76f 78f
7:48am 3 10 mph 1020.4mb 76f 78f
7:42am 6 10 mph 1020.3mb 76f 78f
7:36am 6 10 mph 1020.2mb 76f 78f
7:30am 6 13 mph 1020.1mb 76f 78f
7:24am 6 11 mph 1020mb 76f 78f
7:18am 8 11 mph 1020mb 76f 78f
7:12am 7 13 mph 1019.9mb 76f 78f
7:06am 7 11 mph 1019.8mb 76f 78f
7:00am 6 9 mph 1019.7mb 76f 78f
6:54am 5 11 mph 1019.6mb 76f 78f
6:48am 6 11 mph 1019.6mb 76f 78f
6:42am 6 10 mph 1019.6mb 76f 78f
6:36am 5 11 mph 1019.4mb 76f 78f
6:30am 5 10 mph 1019.4mb 76f 78f
6:24am 6 10 mph 1019.4mb 76f 78f
6:18am 3 10 mph 1019.5mb 76f 78f
6:12am 3 9 mph 1019.4mb 76f 78f
6:06am 3 10 mph 1019.3mb 76f 78f
6:00am 6 9 mph 1019.3mb 76f 78f
5:54am 7 10 mph 1019.2mb 76f 78f
5:48am 6 9 mph 1019.2mb 76f 78f
5:42am 7 14 mph 1019.1mb 76f 78f
5:36am 8 13 mph 1019.1mb 76f 78f
5:30am 9 13 mph 1019mb 76f 78f
5:24am 10 14 mph 1018.8mb 76f 77f
5:18am 10 13 mph 1018.9mb 76f 77f
5:12am 7 9 mph 1019.2mb 76f 77f
5:06am 5 8 mph 1019.2mb 76f 77f
5:00am 5 9 mph 1019.2mb 76f 77f
4:54am 6 10 mph 1019.2mb 76f 77f
4:48am 3 9 mph 1019.1mb 76f 77f
4:42am 5 7 mph 1019.1mb 76f 77f
4:36am 3 9 mph 1019mb 76f 77f
4:30am 3 10 mph 1019mb 76f 77f
4:24am 6 9 mph 1019mb 76f 77f
4:18am 5 8 mph 1019.1mb 76f 77f
4:12am 3 9 mph 1019.1mb 76f 77f
4:06am 6 9 mph 1019.1mb 76f 77f
4:00am 5 8 mph 1019.2mb 76f 77f
3:18am 5 9 mph 1019.4mb 76f 77f
3:12am 5 9 mph 1019.5mb 76f 77f
3:06am 5 9 mph 1019.5mb 76f 77f
3:00am 3 8 mph 1019.6mb 76f 77f
2:54am 3 8 mph 1019.7mb 76f 77f
2:48am 3 7 mph 1019.8mb 76f 77f
2:42am 3 9 mph 1019.9mb 76f 77f
2:36am 3 7 mph 1019.9mb 76f 78f
2:30am 3 6 mph 1019.9mb 76f 78f
2:24am 3 8 mph 1019.9mb 76f 78f
2:18am 5 8 mph 1020mb 76f 78f
2:12am 6 10 mph 1020mb 76f 78f
2:06am 6 8 mph 1020mb 76f 78f
2:00am 3 7 mph 1020.1mb 76f 78f
1:54am 5 9 mph 1020.1mb 76f 78f
1:48am 6 8 mph 1020.2mb 76f 78f
1:42am 6 8 mph 1020.3mb 76f 78f
1:36am 6 9 mph 1020.3mb 76f 78f
1:30am 3 7 mph 1020.3mb 76f 78f
1:24am 5 7 mph 1020.4mb 76f 78f
1:18am 5 7 mph 1020.4mb 76f 78f
1:12am 3 7 mph 1020.5mb 76f 77f
1:06am 5 6 mph 1020.5mb 76f 77f
1:00am 2 7 mph 1020.6mb 76f 78f
12:54am 5 7 mph 1020.6mb 76f 78f
12:48am 6 7 mph 1020.7mb 76f 78f
12:42am 5 7 mph 1020.8mb 76f 78f
12:36am 5 7 mph 1020.8mb 76f 78f
12:30am 5 7 mph 1020.9mb 76f 77f
12:24am 5 7 mph 1020.9mb 76f 77f
12:18am 3 7 mph 1021mb 76f 77f
12:12am 5 7 mph 1021mb 76f 77f
12:06am 3 7 mph 1021mb 76f 77f
12:00am 6 7 mph 1020.9mb 76f 77f
Mon 10/15 11:54pm 6 7 mph 1020.9mb 76f 77f
11:48pm 7 8 mph 1021mb 76f 77f
11:42pm 7 9 mph 1021mb 76f 77f
11:36pm 8 10 mph 1021mb 76f 77f
11:30pm 8 10 mph 1020.9mb 76f 77f
11:24pm 9 11 mph 1021mb 76f 77f
11:18pm 9 11 mph 1021.1mb 76f 78f
11:12pm 9 13 mph 1021.1mb 76f 78f
11:06pm 9 11 mph 1021.1mb 76f 78f
11:00pm 8 11 mph 1021.2mb 76f 78f
10:54pm 9 10 mph 1021.2mb 76f 78f
10:48pm 8 9 mph 1021.3mb 76f 78f
10:42pm 7 8 mph 1021.3mb 76f 78f
10:36pm 7 9 mph 1021.4mb 76f 78f
10:30pm 7 8 mph 1021.3mb 76f 78f
10:24pm 7 10 mph 1021.3mb 76f 78f
10:18pm 8 10 mph 1021.3mb 76f 78f
10:12pm 8 11 mph 1021.3mb 76f 78f
10:06pm 8 10 mph 1021.2mb 76f 78f
10:00pm 8 11 mph 1021.1mb 76f 78f
9:48pm 9 13 mph 1021.1mb 76f 78f
9:42pm 10 13 mph 1021.1mb 76f 78f
9:36pm 9 11 mph 1021.2mb 76f 78f
9:30pm 9 11 mph 1021.3mb 76f 78f
9:24pm 8 13 mph 1021.3mb 76f 78f
9:18pm 10 13 mph 1021.2mb 76f 78f
9:12pm 8 13 mph 1021.3mb 76f 78f
9:06pm 9 13 mph 1021.3mb 76f 78f
9:00pm 9 14 mph 1021.2mb 76f 78f
7:48pm 10 11 mph 1020.9mb 76f 78f
7:42pm 9 13 mph 1020.9mb 76f 78f
7:36pm 10 13 mph 1020.9mb 76f 78f
7:30pm 11 13 mph 1020.8mb 76f 78f
7:24pm 9 11 mph 1020.8mb 76f 78f
7:18pm 10 13 mph 1020.8mb 76f 78f
7:12pm 10 11 mph 1020.8mb 76f 78f
7:06pm 9 11 mph 1020.8mb 76f 78f
7:00pm 8 9 mph 1020.7mb 76f 78f
6:54pm 8 9 mph 1020.8mb 76f 78f
6:48pm 6 8 mph 1020.8mb 76f 78f
6:42pm 7 9 mph 1020.8mb 76f 78f
6:36pm 7 9 mph 1020.7mb 76f 78f
6:30pm 8 9 mph 1020.7mb 76f 78f
6:24pm 8 10 mph 1020.7mb 76f 78f
6:18pm 8 10 mph 1020.7mb 76f 78f
6:12pm 9 10 mph 1020.6mb 76f 78f
6:06pm 9 10 mph 1020.6mb 76f 78f
6:00pm 8 9 mph 1020.6mb 76f 79f